Location: Helion Bumpstead
(52.0500°N, 0.4000°E)
Time: 22:05:01
(UTC+00:00)

Cosmos 1725 Rocket - Pass Details

Date: 21 February 2026
Orbit: 962 x 989 km, 82.9° (Epoch: 11 March)

Event Time Altitude Azimuth Distance (km) Brightness Sun altitude
Rises 04:53:54 0° 159° (SSE) 3,635 7.1 -20.3°
Reaches altitude 10° 04:56:34 10° 152° (SSE) 2,695 6.5 -19.9°
Maximum altitude 05:02:08 37° 87° (E) 1,461 5.5 -19.0°
Drops below altitude 10° 05:07:44 10° 23° (NNE) 2,722 6.7 -18.2°
Sets 05:10:26 0° 15° (NNE) 3,678 7.3 -17.8°
